owner,sensor,date,latitude,longitude,air_pressure(mBar),qcFlag 
TABS,ioos:station:wmo:42044:1,2010-09-01T00:00:00Z,26.1914,-97.0507,1011.87,11111222 
TABS,ioos:station:wmo:42044:1,2010-09-01T00:30:00Z,26.1914,-97.0507,1001.58,11111222 
TABS,ioos:station:wmo:42044:1,2010-09-01T01:00:00Z,26.1914,-97.0507,996.55,11111222 
TABS,ioos:station:wmo:42044:1,2010-09-01T01:30:00Z,26.1914,-97.0507,995.78,11111222 
TABS,ioos:station:wmo:42044:1,2010-09-01T02:00:00Z,26.1914,-97.0507,995.31,11111222 
TABS,ioos:station:wmo:42044:1,2010-09-01T02:30:00Z,26.1914,-97.0507,995.79,11111222 
TABS,ioos:station:wmo:42044:1,2010-09-01T03:00:00Z,26.1914,-97.0507,995.55,11111222 
TABS,ioos:station:wmo:42044:1,2010-09-01T03:30:00Z,26.1914,-97.0507,995.54,11111222 
TABS,ioos:station:wmo:42044:1,2010-09-01T04:00:00Z,26.1914,-97.0507,994.98,11111222 
TABS,ioos:station:wmo:42044:1,2010-09-01T04:30:00Z,26.1914,-97.0507,995.98,11111222 
TABS,ioos:station:wmo:42044:1,2010-09-01T05:00:00Z,26.1914,-97.0507,995.68,11111222 
TABS,ioos:station:wmo:42044:1,2010-09-01T05:30:00Z,26.1914,-97.0507,995.58,11111222 
TABS,ioos:station:wmo:42044:1,2010-09-01T06:00:00Z,26.1914,-97.0507,995.58,11111222 
TABS,ioos:station:wmo:42044:1,2010-09-01T06:30:00Z,26.1914,-97.0507,995.22,11111222 
TABS,ioos:station:wmo:42044:1,2010-09-01T07:00:00Z,26.1914,-97.0507,994.45,11111222 
TABS,ioos:station:wmo:42044:1,2010-09-01T07:30:00Z,26.1914,-97.0507,993.98,11111222 
TABS,ioos:station:wmo:42044:1,2010-09-01T08:00:00Z,26.1914,-97.0507,993.02,11111222 
TABS,ioos:station:wmo:42044:1,2010-09-01T08:30:00Z,26.1914,-97.0507,992.27,11111222 
TABS,ioos:station:wmo:42044:1,2010-09-01T09:00:00Z,26.1914,-97.0507,991.51,11111222 
TABS,ioos:station:wmo:42044:1,2010-09-01T09:30:00Z,26.1914,-97.0507,990.28,11111222 
TABS,ioos:station:wmo:42044:1,2010-09-01T10:00:00Z,26.1914,-97.0507,990.07,11111222 
TABS,ioos:station:wmo:42044:1,2010-09-01T10:30:00Z,26.1914,-97.0507,989.84,11111222 
TABS,ioos:station:wmo:42044:1,2010-09-01T11:00:00Z,26.1914,-97.0507,990.15,11111222 
TABS,ioos:station:wmo:42044:1,2010-09-01T11:30:00Z,26.1914,-97.0507,990.15,11111222 
TABS,ioos:station:wmo:42044:1,2010-09-01T12:00:00Z,26.1914,-97.0507,990.31,11111222 
TABS,ioos:station:wmo:42044:1,2010-09-01T12:30:00Z,26.1914,-97.0507,1000.83,11111222 
TABS,ioos:station:wmo:42044:1,2010-09-01T13:00:00Z,26.1914,-97.0507,1020.5,11111222 
TABS,ioos:station:wmo:42044:1,2010-09-01T13:30:00Z,26.1914,-97.0507,1026.2,11111222 
TABS,ioos:station:wmo:42044:1,2010-09-01T14:00:00Z,26.1914,-97.0507,1032.32,11111222 
TABS,ioos:station:wmo:42044:1,2010-09-01T14:30:00Z,26.1914,-97.0507,1031.19,11111222 
TABS,ioos:station:wmo:42044:1,2010-09-01T15:00:00Z,26.1914,-97.0507,1029.36,11111222 
TABS,ioos:station:wmo:42044:1,2010-09-01T15:30:00Z,26.1914,-97.0507,1026.44,11111222 
TABS,ioos:station:wmo:42044:1,2010-09-01T16:00:00Z,26.1914,-97.0507,1027.56,11111222 
TABS,ioos:station:wmo:42044:1,2010-09-01T16:30:00Z,26.1914,-97.0507,1025.56,11111222 
TABS,ioos:station:wmo:42044:1,2010-09-01T17:00:00Z,26.1914,-97.0507,1022.39,11111222 
TABS,ioos:station:wmo:42044:1,2010-09-01T17:30:00Z,26.1914,-97.0507,1016.62,11111222 
TABS,ioos:station:wmo:42044:1,2010-09-01T18:00:00Z,26.1914,-97.0507,1007.76,11111222 
TABS,ioos:station:wmo:42044:1,2010-09-01T18:30:00Z,26.1914,-97.0507,999.14,11111222 
TABS,ioos:station:wmo:42044:1,2010-09-01T19:00:00Z,26.1914,-97.0507,997.35,11111222 
TABS,ioos:station:wmo:42044:1,2010-09-01T19:30:00Z,26.1914,-97.0507,999.58,11111222 
TABS,ioos:station:wmo:42044:1,2010-09-01T20:00:00Z,26.1914,-97.0507,1001.87,11111222 
TABS,ioos:station:wmo:42044:1,2010-09-01T20:30:00Z,26.1914,-97.0507,1005.26,11111222 
TABS,ioos:station:wmo:42044:1,2010-09-01T21:00:00Z,26.1914,-97.0507,1004.2,11111222 
TABS,ioos:station:wmo:42044:1,2010-09-01T21:30:00Z,26.1914,-97.0507,1003.8,11111222 
TABS,ioos:station:wmo:42044:1,2010-09-01T22:00:00Z,26.1914,-97.0507,1002.23,11111222 
TABS,ioos:station:wmo:42044:1,2010-09-01T22:30:00Z,26.1914,-97.0507,1002.66,11111222 
TABS,ioos:station:wmo:42044:1,2010-09-01T23:00:00Z,26.1914,-97.0507,1002.6,11111222 
TABS,ioos:station:wmo:42044:1,2010-09-01T23:30:00Z,26.1914,-97.0507,1002.28,11111222 
TABS,ioos:station:wmo:42044:1,2010-09-02T00:00:00Z,26.1914,-97.0507,998.94,11111222 
TABS,ioos:station:wmo:42044:1,2010-09-02T00:30:00Z,26.1914,-97.0507,992.03,11111222 
TABS,ioos:station:wmo:42044:1,2010-09-02T01:00:00Z,26.1914,-97.0507,988.59,11111222 
TABS,ioos:station:wmo:42044:1,2010-09-02T01:30:00Z,26.1914,-97.0507,988.12,11111222 
TABS,ioos:station:wmo:42044:1,2010-09-02T02:00:00Z,26.1914,-97.0507,988.01,11111222 
TABS,ioos:station:wmo:42044:1,2010-09-02T02:30:00Z,26.1914,-97.0507,987.62,11111222 
TABS,ioos:station:wmo:42044:1,2010-09-02T03:00:00Z,26.1914,-97.0507,987.42,11111222 
TABS,ioos:station:wmo:42044:1,2010-09-02T03:30:00Z,26.1914,-97.0507,987.1,11111222 
TABS,ioos:station:wmo:42044:1,2010-09-02T04:00:00Z,26.1914,-97.0507,987.09,11111222 
TABS,ioos:station:wmo:42044:1,2010-09-02T04:30:00Z,26.1914,-97.0507,986.84,11111222 
TABS,ioos:station:wmo:42044:1,2010-09-02T05:00:00Z,26.1914,-97.0507,986.86,11111222 
TABS,ioos:station:wmo:42044:1,2010-09-02T05:30:00Z,26.1914,-97.0507,986.57,11111222 
TABS,ioos:station:wmo:42044:1,2010-09-02T06:00:00Z,26.1914,-97.0507,986.28,11111222 
TABS,ioos:station:wmo:42044:1,2010-09-02T06:30:00Z,26.1914,-97.0507,985.8,11111222 
TABS,ioos:station:wmo:42044:1,2010-09-02T07:00:00Z,26.1914,-97.0507,985.97,11111222 
TABS,ioos:station:wmo:42044:1,2010-09-02T07:30:00Z,26.1914,-97.0507,985.59,11111222 
TABS,ioos:station:wmo:42044:1,2010-09-02T08:00:00Z,26.1914,-97.0507,984.24,11111222 
TABS,ioos:station:wmo:42044:1,2010-09-02T08:30:00Z,26.1914,-97.0507,983.73,11111222 
TABS,ioos:station:wmo:42044:1,2010-09-02T09:00:00Z,26.1914,-97.0507,983.74,11111222 
TABS,ioos:station:wmo:42044:1,2010-09-02T09:30:00Z,26.1914,-97.0507,990.76,11111222 
TABS,ioos:station:wmo:42044:1,2010-09-02T10:00:00Z,26.1914,-97.0507,994.4,11111222 
TABS,ioos:station:wmo:42044:1,2010-09-02T10:30:00Z,26.1914,-97.0507,995.76,11111222 
TABS,ioos:station:wmo:42044:1,2010-09-02T11:00:00Z,26.1914,-97.0507,995.34,11111222 
TABS,ioos:station:wmo:42044:1,2010-09-02T11:30:00Z,26.1914,-97.0507,995.58,11111222 
TABS,ioos:station:wmo:42044:1,2010-09-02T12:00:00Z,26.1914,-97.0507,995.92,11111222 
TABS,ioos:station:wmo:42044:1,2010-09-02T12:30:00Z,26.1914,-97.0507,997.58,11111222 
TABS,ioos:station:wmo:42044:1,2010-09-02T13:00:00Z,26.1914,-97.0507,1004.0,11111222 
TABS,ioos:station:wmo:42044:1,2010-09-02T13:30:00Z,26.1914,-97.0507,1013.41,11111222 
TABS,ioos:station:wmo:42044:1,2010-09-02T14:00:00Z,26.1914,-97.0507,1019.0,11111222 
TABS,ioos:station:wmo:42044:1,2010-09-02T14:30:00Z,26.1914,-97.0507,1022.06,11111222 
TABS,ioos:station:wmo:42044:1,2010-09-02T15:00:00Z,26.1914,-97.0507,1021.03,11111222 
TABS,ioos:station:wmo:42044:1,2010-09-02T15:30:00Z,26.1914,-97.0507,1025.09,11111222 
TABS,ioos:station:wmo:42044:1,2010-09-02T16:00:00Z,26.1914,-97.0507,1023.87,11111222 
TABS,ioos:station:wmo:42044:1,2010-09-02T16:30:00Z,26.1914,-97.0507,1023.85,11111222 
TABS,ioos:station:wmo:42044:1,2010-09-02T17:00:00Z,26.1914,-97.0507,1028.36,11111222 
TABS,ioos:station:wmo:42044:1,2010-09-02T17:30:00Z,26.1914,-97.0507,991.15,11111222 
TABS,ioos:station:wmo:42044:1,2010-09-02T18:00:00Z,26.1914,-97.0507,1009.93,11111222 
TABS,ioos:station:wmo:42044:1,2010-09-02T18:30:00Z,26.1914,-97.0507,1014.99,11111222 
TABS,ioos:station:wmo:42044:1,2010-09-02T19:00:00Z,26.1914,-97.0507,1018.05,11111222 
TABS,ioos:station:wmo:42044:1,2010-09-02T19:30:00Z,26.1914,-97.0507,1021.4,11111222 
TABS,ioos:station:wmo:42044:1,2010-09-02T20:00:00Z,26.1914,-97.0507,1021.99,11111222 
TABS,ioos:station:wmo:42044:1,2010-09-02T20:30:00Z,26.1914,-97.0507,1021.28,11111222 
TABS,ioos:station:wmo:42044:1,2010-09-02T21:00:00Z,26.1914,-97.0507,1020.2,11111222 
TABS,ioos:station:wmo:42044:1,2010-09-02T21:30:00Z,26.1914,-97.0507,1020.5,11111222 
TABS,ioos:station:wmo:42044:1,2010-09-02T22:00:00Z,26.1914,-97.0507,1019.12,11111222 
TABS,ioos:station:wmo:42044:1,2010-09-02T22:30:00Z,26.1914,-97.0507,1017.81,11111222 
TABS,ioos:station:wmo:42044:1,2010-09-02T23:00:00Z,26.1914,-97.0507,1015.95,11111222 
TABS,ioos:station:wmo:42044:1,2010-09-02T23:30:00Z,26.1914,-97.0507,1013.34,11111222 
TABS,ioos:station:wmo:42044:1,2010-09-03T00:00:00Z,26.1914,-97.0507,1009.42,11111222 
TABS,ioos:station:wmo:42044:1,2010-09-03T00:30:00Z,26.1914,-97.0507,1000.76,11111222 
TABS,ioos:station:wmo:42044:1,2010-09-03T01:00:00Z,26.1914,-97.0507,997.38,11111222 
TABS,ioos:station:wmo:42044:1,2010-09-03T01:30:00Z,26.1914,-97.0507,997.27,11111222 
TABS,ioos:station:wmo:42044:1,2010-09-03T02:00:00Z,26.1914,-97.0507,997.3,11111222 
TABS,ioos:station:wmo:42044:1,2010-09-03T02:30:00Z,26.1914,-97.0507,996.83,11111222 
TABS,ioos:station:wmo:42044:1,2010-09-03T03:00:00Z,26.1914,-97.0507,996.37,11111222 
TABS,ioos:station:wmo:42044:1,2010-09-03T03:30:00Z,26.1914,-97.0507,995.98,11111222 
TABS,ioos:station:wmo:42044:1,2010-09-03T04:00:00Z,26.1914,-97.0507,995.51,11111222 
TABS,ioos:station:wmo:42044:1,2010-09-03T04:30:00Z,26.1914,-97.0507,995.92,11111222 
TABS,ioos:station:wmo:42044:1,2010-09-03T05:00:00Z,26.1914,-97.0507,995.93,11111222 
TABS,ioos:station:wmo:42044:1,2010-09-03T05:30:00Z,26.1914,-97.0507,995.54,11111222 
TABS,ioos:station:wmo:42044:1,2010-09-03T06:00:00Z,26.1914,-97.0507,995.56,11111222 
TABS,ioos:station:wmo:42044:1,2010-09-03T06:30:00Z,26.1914,-97.0507,995.57,11111222 
TABS,ioos:station:wmo:42044:1,2010-09-03T07:00:00Z,26.1914,-97.0507,995.46,11111222 
TABS,ioos:station:wmo:42044:1,2010-09-03T07:30:00Z,26.1914,-97.0507,995.23,11111222 
TABS,ioos:station:wmo:42044:1,2010-09-03T08:00:00Z,26.1914,-97.0507,995.01,11111222 
TABS,ioos:station:wmo:42044:1,2010-09-03T08:30:00Z,26.1914,-97.0507,994.81,11111222 
TABS,ioos:station:wmo:42044:1,2010-09-03T09:00:00Z,26.1914,-97.0507,994.69,11111222 
TABS,ioos:station:wmo:42044:1,2010-09-03T09:30:00Z,26.1914,-97.0507,994.37,11111222 
TABS,ioos:station:wmo:42044:1,2010-09-03T10:00:00Z,26.1914,-97.0507,994.48,11111222 
TABS,ioos:station:wmo:42044:1,2010-09-03T10:30:00Z,26.1914,-97.0507,991.48,11111222 
TABS,ioos:station:wmo:42044:1,2010-09-03T11:00:00Z,26.1914,-97.0507,991.85,11111222 
TABS,ioos:station:wmo:42044:1,2010-09-03T11:30:00Z,26.1914,-97.0507,992.44,11111222 
TABS,ioos:station:wmo:42044:1,2010-09-03T12:00:00Z,26.1914,-97.0507,994.32,11111222 
TABS,ioos:station:wmo:42044:1,2010-09-03T12:30:00Z,26.1914,-97.0507,998.62,11111222 
TABS,ioos:station:wmo:42044:1,2010-09-03T13:00:00Z,26.1914,-97.0507,1007.34,11111222 
TABS,ioos:station:wmo:42044:1,2010-09-03T13:30:00Z,26.1914,-97.0507,1014.22,11111222 
TABS,ioos:station:wmo:42044:1,2010-09-03T14:00:00Z,26.1914,-97.0507,1018.53,11111222 
TABS,ioos:station:wmo:42044:1,2010-09-03T14:30:00Z,26.1914,-97.0507,1029.32,11111222 
TABS,ioos:station:wmo:42044:1,2010-09-03T15:00:00Z,26.1914,-97.0507,1030.41,11111222 
TABS,ioos:station:wmo:42044:1,2010-09-03T15:30:00Z,26.1914,-97.0507,1025.81,11111222 
TABS,ioos:station:wmo:42044:1,2010-09-03T16:00:00Z,26.1914,-97.0507,1026.36,11111222 
TABS,ioos:station:wmo:42044:1,2010-09-03T16:30:00Z,26.1914,-97.0507,1026.06,11111222 
TABS,ioos:station:wmo:42044:1,2010-09-03T17:00:00Z,26.1914,-97.0507,1021.44,11111222 
TABS,ioos:station:wmo:42044:1,2010-09-03T17:30:00Z,26.1914,-97.0507,1020.39,11111222 
TABS,ioos:station:wmo:42044:1,2010-09-03T18:00:00Z,26.1914,-97.0507,1021.1,11111222 
TABS,ioos:station:wmo:42044:1,2010-09-03T18:30:00Z,26.1914,-97.0507,1019.8,11111222 
TABS,ioos:station:wmo:42044:1,2010-09-03T19:00:00Z,26.1914,-97.0507,1015.08,11111222 
TABS,ioos:station:wmo:42044:1,2010-09-03T19:30:00Z,26.1914,-97.0507,1012.95,11111222 
TABS,ioos:station:wmo:42044:1,2010-09-03T20:00:00Z,26.1914,-97.0507,1006.74,11111222 
TABS,ioos:station:wmo:42044:1,2010-09-03T20:30:00Z,26.1914,-97.0507,1007.75,11111222 
TABS,ioos:station:wmo:42044:1,2010-09-03T21:00:00Z,26.1914,-97.0507,1009.0,11111222 
TABS,ioos:station:wmo:42044:1,2010-09-03T21:30:00Z,26.1914,-97.0507,1005.45,11111222 
TABS,ioos:station:wmo:42044:1,2010-09-03T22:00:00Z,26.1914,-97.0507,1007.62,11111222 
TABS,ioos:station:wmo:42044:1,2010-09-03T22:30:00Z,26.1914,-97.0507,1007.02,11111222 
TABS,ioos:station:wmo:42044:1,2010-09-03T23:00:00Z,26.1914,-97.0507,1002.36,11111222 
TABS,ioos:station:wmo:42044:1,2010-09-03T23:30:00Z,26.1914,-97.0507,998.27,11111222 
TABS,ioos:station:wmo:42044:1,2010-09-04T00:00:00Z,26.1914,-97.0507,997.29,11111222 
TABS,ioos:station:wmo:42044:1,2010-09-04T00:30:00Z,26.1914,-97.0507,995.87,11111222 
TABS,ioos:station:wmo:42044:1,2010-09-04T01:00:00Z,26.1914,-97.0507,993.04,11111222 
TABS,ioos:station:wmo:42044:1,2010-09-04T01:30:00Z,26.1914,-97.0507,993.89,11111222 
TABS,ioos:station:wmo:42044:1,2010-09-04T02:00:00Z,26.1914,-97.0507,994.87,11111222 
TABS,ioos:station:wmo:42044:1,2010-09-04T02:30:00Z,26.1914,-97.0507,995.65,11111222 
TABS,ioos:station:wmo:42044:1,2010-09-04T03:00:00Z,26.1914,-97.0507,995.15,11111222 
TABS,ioos:station:wmo:42044:1,2010-09-04T03:30:00Z,26.1914,-97.0507,993.97,11111222 
TABS,ioos:station:wmo:42044:1,2010-09-04T04:00:00Z,26.1914,-97.0507,993.85,11111222 
TABS,ioos:station:wmo:42044:1,2010-09-04T04:30:00Z,26.1914,-97.0507,994.69,11111222 
TABS,ioos:station:wmo:42044:1,2010-09-04T05:00:00Z,26.1914,-97.0507,993.92,11111222 
TABS,ioos:station:wmo:42044:1,2010-09-04T05:30:00Z,26.1914,-97.0507,993.57,11111222 
TABS,ioos:station:wmo:42044:1,2010-09-04T06:00:00Z,26.1914,-97.0507,993.74,11111222 
TABS,ioos:station:wmo:42044:1,2010-09-04T06:30:00Z,26.1914,-97.0507,997.02,11111222 
TABS,ioos:station:wmo:42044:1,2010-09-04T07:00:00Z,26.1914,-97.0507,989.75,11111222 
TABS,ioos:station:wmo:42044:1,2010-09-04T07:30:00Z,26.1914,-97.0507,998.86,11111222 
TABS,ioos:station:wmo:42044:1,2010-09-04T08:00:00Z,26.1914,-97.0507,1005.43,11111222 
TABS,ioos:station:wmo:42044:1,2010-09-04T08:30:00Z,26.1914,-97.0507,1008.38,11111222 
TABS,ioos:station:wmo:42044:1,2010-09-04T09:00:00Z,26.1914,-97.0507,1000.57,11111222 
TABS,ioos:station:wmo:42044:1,2010-09-04T09:30:00Z,26.1914,-97.0507,991.13,11111222 
TABS,ioos:station:wmo:42044:1,2010-09-04T10:00:00Z,26.1914,-97.0507,995.41,11111222 
TABS,ioos:station:wmo:42044:1,2010-09-04T10:30:00Z,26.1914,-97.0507,999.35,11111222 
TABS,ioos:station:wmo:42044:1,2010-09-04T11:00:00Z,26.1914,-97.0507,1003.76,11111222 
TABS,ioos:station:wmo:42044:1,2010-09-04T11:30:00Z,26.1914,-97.0507,999.55,11111222 
TABS,ioos:station:wmo:42044:1,2010-09-04T12:00:00Z,26.1914,-97.0507,1003.9,11111222 
TABS,ioos:station:wmo:42044:1,2010-09-04T12:30:00Z,26.1914,-97.0507,991.36,11111222 
TABS,ioos:station:wmo:42044:1,2010-09-04T13:00:00Z,26.1914,-97.0507,993.74,11111222 
TABS,ioos:station:wmo:42044:1,2010-09-04T13:30:00Z,26.1914,-97.0507,999.63,11111222 
TABS,ioos:station:wmo:42044:1,2010-09-04T14:00:00Z,26.1914,-97.0507,1006.33,11111222 
TABS,ioos:station:wmo:42044:1,2010-09-04T14:30:00Z,26.1914,-97.0507,1003.47,11111222 
TABS,ioos:station:wmo:42044:1,2010-09-04T15:00:00Z,26.1914,-97.0507,1013.61,11111222 
TABS,ioos:station:wmo:42044:1,2010-09-04T15:30:00Z,26.1914,-97.0507,1012.61,11111222 
TABS,ioos:station:wmo:42044:1,2010-09-04T16:00:00Z,26.1914,-97.0507,1016.5,11111222 
TABS,ioos:station:wmo:42044:1,2010-09-04T16:30:00Z,26.1914,-97.0507,1017.52,11111222 
TABS,ioos:station:wmo:42044:1,2010-09-04T17:00:00Z,26.1914,-97.0507,1022.99,11111222 
TABS,ioos:station:wmo:42044:1,2010-09-04T17:30:00Z,26.1914,-97.0507,1025.47,11111222 
TABS,ioos:station:wmo:42044:1,2010-09-04T18:00:00Z,26.1914,-97.0507,1028.01,11111222 
TABS,ioos:station:wmo:42044:1,2010-09-04T18:30:00Z,26.1914,-97.0507,1026.65,11111222 
TABS,ioos:station:wmo:42044:1,2010-09-04T19:00:00Z,26.1914,-97.0507,1029.61,11111222 
TABS,ioos:station:wmo:42044:1,2010-09-04T19:30:00Z,26.1914,-97.0507,1028.65,11111222 
TABS,ioos:station:wmo:42044:1,2010-09-04T20:00:00Z,26.1914,-97.0507,1029.5,11111222 
TABS,ioos:station:wmo:42044:1,2010-09-04T20:30:00Z,26.1914,-97.0507,1019.15,11111222 
TABS,ioos:station:wmo:42044:1,2010-09-04T21:00:00Z,26.1914,-97.0507,1010.93,11111222 
TABS,ioos:station:wmo:42044:1,2010-09-04T21:30:00Z,26.1914,-97.0507,1012.27,11111222 
TABS,ioos:station:wmo:42044:1,2010-09-04T22:00:00Z,26.1914,-97.0507,1016.94,11111222 
TABS,ioos:station:wmo:42044:1,2010-09-04T22:30:00Z,26.1914,-97.0507,1015.42,11111222 
TABS,ioos:station:wmo:42044:1,2010-09-04T23:00:00Z,26.1914,-97.0507,1004.08,11111222 
TABS,ioos:station:wmo:42044:1,2010-09-04T23:30:00Z,26.1914,-97.0507,1007.1,11111222 
TABS,ioos:station:wmo:42044:1,2010-09-05T00:00:00Z,26.1914,-97.0507,1010.31,11111222 
TABS,ioos:station:wmo:42044:1,2010-09-05T00:30:00Z,26.1914,-97.0507,1001.35,11111222 
TABS,ioos:station:wmo:42044:1,2010-09-05T01:00:00Z,26.1914,-97.0507,1006.14,11111222 
TABS,ioos:station:wmo:42044:1,2010-09-05T01:30:00Z,26.1914,-97.0507,1008.27,11111222 
TABS,ioos:station:wmo:42044:1,2010-09-05T02:00:00Z,26.1914,-97.0507,1008.82,11111222 
TABS,ioos:station:wmo:42044:1,2010-09-05T02:30:00Z,26.1914,-97.0507,1009.26,11111222 
TABS,ioos:station:wmo:42044:1,2010-09-05T03:00:00Z,26.1914,-97.0507,1011.12,11111222 
TABS,ioos:station:wmo:42044:1,2010-09-05T03:30:00Z,26.1914,-97.0507,1011.06,11111222 
TABS,ioos:station:wmo:42044:1,2010-09-05T04:00:00Z,26.1914,-97.0507,1011.26,11111222 
TABS,ioos:station:wmo:42044:1,2010-09-05T04:30:00Z,26.1914,-97.0507,1011.21,11111222 
TABS,ioos:station:wmo:42044:1,2010-09-05T05:00:00Z,26.1914,-97.0507,1010.5,11111222 
TABS,ioos:station:wmo:42044:1,2010-09-05T05:30:00Z,26.1914,-97.0507,1011.19,11111222 
TABS,ioos:station:wmo:42044:1,2010-09-05T06:00:00Z,26.1914,-97.0507,1012.09,11111222 
TABS,ioos:station:wmo:42044:1,2010-09-05T06:30:00Z,26.1914,-97.0507,1012.12,11111222 
TABS,ioos:station:wmo:42044:1,2010-09-05T07:00:00Z,26.1914,-97.0507,1011.98,11111222 
TABS,ioos:station:wmo:42044:1,2010-09-05T07:30:00Z,26.1914,-97.0507,1012.38,11111222 
TABS,ioos:station:wmo:42044:1,2010-09-05T08:00:00Z,26.1914,-97.0507,1012.72,11111222 
TABS,ioos:station:wmo:42044:1,2010-09-05T08:30:00Z,26.1914,-97.0507,1012.72,11111222 
TABS,ioos:station:wmo:42044:1,2010-09-05T09:00:00Z,26.1914,-97.0507,997.94,11111222 
TABS,ioos:station:wmo:42044:1,2010-09-05T09:30:00Z,26.1914,-97.0507,1006.45,11111222 
TABS,ioos:station:wmo:42044:1,2010-09-05T10:00:00Z,26.1914,-97.0507,1007.76,11111222 
TABS,ioos:station:wmo:42044:1,2010-09-05T10:30:00Z,26.1914,-97.0507,997.23,11111222 
TABS,ioos:station:wmo:42044:1,2010-09-05T11:00:00Z,26.1914,-97.0507,1007.63,11111222 
TABS,ioos:station:wmo:42044:1,2010-09-05T11:30:00Z,26.1914,-97.0507,1008.66,11111222 
TABS,ioos:station:wmo:42044:1,2010-09-05T12:00:00Z,26.1914,-97.0507,1010.57,11111222 
TABS,ioos:station:wmo:42044:1,2010-09-05T12:30:00Z,26.1914,-97.0507,1011.23,11111222 
TABS,ioos:station:wmo:42044:1,2010-09-05T13:00:00Z,26.1914,-97.0507,1013.03,11111222 
TABS,ioos:station:wmo:42044:1,2010-09-05T13:30:00Z,26.1914,-97.0507,1029.34,11111222 
TABS,ioos:station:wmo:42044:1,2010-09-05T14:00:00Z,26.1914,-97.0507,1032.71,11111222 
TABS,ioos:station:wmo:42044:1,2010-09-05T14:30:00Z,26.1914,-97.0507,1027.39,11111222 
TABS,ioos:station:wmo:42044:1,2010-09-05T15:00:00Z,26.1914,-97.0507,1028.98,11111222 
TABS,ioos:station:wmo:42044:1,2010-09-05T15:30:00Z,26.1914,-97.0507,1022.72,11111222 
TABS,ioos:station:wmo:42044:1,2010-09-05T16:00:00Z,26.1914,-97.0507,1012.52,11111222 
TABS,ioos:station:wmo:42044:1,2010-09-05T16:30:00Z,26.1914,-97.0507,1010.88,11111222 
TABS,ioos:station:wmo:42044:1,2010-09-05T17:00:00Z,26.1914,-97.0507,1006.32,11111222 
TABS,ioos:station:wmo:42044:1,2010-09-05T17:30:00Z,26.1914,-97.0507,995.78,11111222 
TABS,ioos:station:wmo:42044:1,2010-09-05T18:00:00Z,26.1914,-97.0507,1002.48,11111222 
TABS,ioos:station:wmo:42044:1,2010-09-05T18:30:00Z,26.1914,-97.0507,1006.53,11111222 
TABS,ioos:station:wmo:42044:1,2010-09-05T19:00:00Z,26.1914,-97.0507,1009.99,11111222 
TABS,ioos:station:wmo:42044:1,2010-09-05T19:30:00Z,26.1914,-97.0507,1010.89,11111222 
TABS,ioos:station:wmo:42044:1,2010-09-05T20:00:00Z,26.1914,-97.0507,1008.47,11111222 
TABS,ioos:station:wmo:42044:1,2010-09-05T20:30:00Z,26.1914,-97.0507,1011.65,11111222 
TABS,ioos:station:wmo:42044:1,2010-09-05T21:00:00Z,26.1914,-97.0507,1012.45,11111222 
TABS,ioos:station:wmo:42044:1,2010-09-05T21:30:00Z,26.1914,-97.0507,1010.26,11111222 
TABS,ioos:station:wmo:42044:1,2010-09-05T22:00:00Z,26.1914,-97.0507,1010.18,11111222 
TABS,ioos:station:wmo:42044:1,2010-09-05T22:30:00Z,26.1914,-97.0507,1011.24,11111222 
TABS,ioos:station:wmo:42044:1,2010-09-05T23:00:00Z,26.1914,-97.0507,1005.26,11111222 
TABS,ioos:station:wmo:42044:1,2010-09-05T23:30:00Z,26.1914,-97.0507,990.8,11111222 
TABS,ioos:station:wmo:42044:1,2010-09-06T00:00:00Z,26.1914,-97.0507,997.34,11111222 
TABS,ioos:station:wmo:42044:1,2010-09-06T00:30:00Z,26.1914,-97.0507,1000.62,11111222 
TABS,ioos:station:wmo:42044:1,2010-09-06T01:00:00Z,26.1914,-97.0507,997.78,11111222 
TABS,ioos:station:wmo:42044:1,2010-09-06T01:30:00Z,26.1914,-97.0507,998.24,11111222 
TABS,ioos:station:wmo:42044:1,2010-09-06T02:00:00Z,26.1914,-97.0507,996.79,11111222 
TABS,ioos:station:wmo:42044:1,2010-09-06T02:30:00Z,26.1914,-97.0507,998.52,11111222 
TABS,ioos:station:wmo:42044:1,2010-09-06T03:00:00Z,26.1914,-97.0507,996.56,11111222 
TABS,ioos:station:wmo:42044:1,2010-09-06T03:30:00Z,26.1914,-97.0507,996.82,11111222 
TABS,ioos:station:wmo:42044:1,2010-09-06T04:00:00Z,26.1914,-97.0507,999.75,11111222 
TABS,ioos:station:wmo:42044:1,2010-09-06T04:30:00Z,26.1914,-97.0507,999.63,11111222 
TABS,ioos:station:wmo:42044:1,2010-09-06T05:00:00Z,26.1914,-97.0507,1000.11,11111222 
TABS,ioos:station:wmo:42044:1,2010-09-06T05:30:00Z,26.1914,-97.0507,1000.92,11111222 
TABS,ioos:station:wmo:42044:1,2010-09-06T06:00:00Z,26.1914,-97.0507,1001.29,11111222 
TABS,ioos:station:wmo:42044:1,2010-09-06T06:30:00Z,26.1914,-97.0507,999.17,11111222 
TABS,ioos:station:wmo:42044:1,2010-09-06T07:00:00Z,26.1914,-97.0507,997.52,11111222 
TABS,ioos:station:wmo:42044:1,2010-09-06T07:30:00Z,26.1914,-97.0507,991.89,11111222 
TABS,ioos:station:wmo:42044:1,2010-09-06T08:00:00Z,26.1914,-97.0507,981.93,11111222 
TABS,ioos:station:wmo:42044:1,2010-09-06T08:30:00Z,26.1914,-97.0507,981.01,11111222 
TABS,ioos:station:wmo:42044:1,2010-09-06T09:00:00Z,26.1914,-97.0507,986.64,11111222 
TABS,ioos:station:wmo:42044:1,2010-09-06T09:30:00Z,26.1914,-97.0507,990.13,11111222 
TABS,ioos:station:wmo:42044:1,2010-09-06T10:00:00Z,26.1914,-97.0507,992.72,11111222 
TABS,ioos:station:wmo:42044:1,2010-09-06T10:30:00Z,26.1914,-97.0507,994.2,11111222 
TABS,ioos:station:wmo:42044:1,2010-09-06T11:00:00Z,26.1914,-97.0507,995.71,11111222 
TABS,ioos:station:wmo:42044:1,2010-09-06T11:30:00Z,26.1914,-97.0507,995.48,11111222 
TABS,ioos:station:wmo:42044:1,2010-09-06T12:00:00Z,26.1914,-97.0507,986.28,11111222 
TABS,ioos:station:wmo:42044:1,2010-09-06T12:30:00Z,26.1914,-97.0507,985.39,11111222 
TABS,ioos:station:wmo:42044:1,2010-09-06T13:00:00Z,26.1914,-97.0507,991.09,11111222 
TABS,ioos:station:wmo:42044:1,2010-09-06T13:30:00Z,26.1914,-97.0507,993.81,11111222 
TABS,ioos:station:wmo:42044:1,2010-09-06T14:00:00Z,26.1914,-97.0507,988.8,11111222 
TABS,ioos:station:wmo:42044:1,2010-09-06T14:30:00Z,26.1914,-97.0507,984.79,11111222 
TABS,ioos:station:wmo:42044:1,2010-09-06T15:00:00Z,26.1914,-97.0507,983.15,11111222 
TABS,ioos:station:wmo:42044:1,2010-09-06T15:30:00Z,26.1914,-97.0507,983.65,11111222 
TABS,ioos:station:wmo:42044:1,2010-09-06T16:00:00Z,26.1914,-97.0507,986.31,11111222 
TABS,ioos:station:wmo:42044:1,2010-09-06T16:30:00Z,26.1914,-97.0507,994.41,11111222 
TABS,ioos:station:wmo:42044:1,2010-09-06T17:00:00Z,26.1914,-97.0507,1002.89,11111222 
TABS,ioos:station:wmo:42044:1,2010-09-06T17:30:00Z,26.1914,-97.0507,1005.96,11111222 
TABS,ioos:station:wmo:42044:1,2010-09-06T18:00:00Z,26.1914,-97.0507,1007.49,11111222 
TABS,ioos:station:wmo:42044:1,2010-09-06T18:30:00Z,26.1914,-97.0507,1007.31,11111222 
TABS,ioos:station:wmo:42044:1,2010-09-06T19:00:00Z,26.1914,-97.0507,1005.83,11111222 
TABS,ioos:station:wmo:42044:1,2010-09-06T19:30:00Z,26.1914,-97.0507,1005.14,11111222 